Theta_e
306 298 297 297 299 301 302 303 301 302 303 301 299 298 297 297 297 300 298 296 299 294 293 294 294 295 295 296 299 300 299 296 296 297 298 298 297 301 304 306 309 310 312 313 315 318 321 323 324 324 324 324 325 326 327 327 326 327 326 324 323 325 324 324 323 322 322 322 322 321 323 322 323 323 324 323 324 324 324 324 324 324 326 325 324 324
305 297 297 300 302 302 303 304 304 303 302 300 298 297 297 299 297 300 297 296 298 296 292 293 293 294 295 298 298 298 298 298 297 297 297 298 299 299 303 305 307 310 311 310 312 317 318 321 322 322 323 321 323 324 326 326 326 327 327 325 325 326 325 325 325 323 323 323 323 323 324 324 324 323 323 323 324 325 325 324 325 324 326 326 325 324
298 296 299 302 305 305 305 304 304 302 300 300 299 299 297 297 296 294 293 295 296 296 291 292 292 294 296 297 299 299 299 299 300 300 300 298 298 299 301 305 306 306 308 309 311 316 318 319 321 322 322 323 325 325 325 326 326 326 326 326 326 327 327 326 326 325 324 324 324 324 322 324 323 325 325 326 325 325 326 326 325 325 326 327 326 325
294 298 301 304 305 303 303 304 303 302 302 297 297 296 296 298 293 289 291 293 295 294 292 291 289 292 294 294 296 298 300 302 301 301 301 300 299 299 300 302 304 305 307 307 308 313 316 317 320 321 321 322 324 323 324 325 325 326 326 326 327 327 328 328 327 325 327 326 325 324 322 323 324 323 324 325 324 325 325 326 327 327 327 327 327 326
296 301 305 304 304 303 301 302 301 299 297 298 298 295 296 296 297 291 289 291 292 293 294 291 290 292 293 294 296 299 299 299 301 300 300 300 300 301 302 301 303 305 306 307 307 310 315 316 318 320 322 322 322 323 324 324 325 327 326 327 327 327 327 328 326 326 327 325 324 324 322 322 323 323 322 324 324 325 325 325 326 327 327 328 328 328
299 304 306 304 303 303 302 300 300 299 295 295 297 298 296 297 292 291 291 290 286 287 291 292 285 284 289 292 293 297 296 297 298 298 300 299 299 299 299 300 301 302 304 307 308 310 314 317 318 319 320 320 321 322 324 325 325 326 327 327 327 326 327 327 327 326 326 325 326 324 323 322 323 323 323 323 324 324 324 325 326 326 327 328 328 329
300 304 304 302 302 301 301 299 300 301 295 292 295 300 299 299 293 292 291 292 285 284 290 292 287 283 288 291 292 293 293 296 297 298 300 302 301 300 299 300 300 301 302 304 307 310 313 316 317 318 319 320 321 322 324 324 325 325 326 326 327 327 326 326 327 326 324 326 326 326 325 324 323 322 323 325 326 326 326 326 325 326 326 328 328 329
302 302 302 302 301 299 298 297 299 301 296 292 297 300 299 299 294 293 294 290 287 289 291 289 288 282 283 290 295 296 295 295 296 297 299 301 302 302 301 300 300 301 302 303 305 309 313 316 317 318 320 320 321 322 323 323 324 324 324 325 326 327 325 326 326 325 325 325 325 325 325 324 324 323 323 323 325 325 325 325 325 325 326 327 329 330
302 299 300 299 299 297 297 299 300 302 298 295 298 300 299 300 298 297 295 291 291 287 285 284 288 285 282 286 291 293 292 294 295 297 298 299 301 302 303 302 301 302 303 304 304 307 312 314 316 318 319 321 322 321 321 322 323 323 324 323 324 325 325 325 325 324 325 324 325 325 325 324 324 324 324 321 322 323 323 324 325 325 326 326 327 329
302 302 302 302 299 296 299 301 302 303 299 299 299 299 299 297 298 297 290 290 290 288 284 285 287 283 287 287 292 291 291 293 296 297 299 300 300 301 302 302 301 300 300 302 304 305 308 313 315 317 319 320 321 322 321 321 321 322 322 322 322 323 325 325 324 324 325 324 323 324 324 324 324 323 322 320 321 322 323 324 324 325 325 326 326 327
298 305 306 303 300 301 301 302 301 303 301 300 298 297 295 293 291 289 289 285 288 286 285 287 287 286 284 286 291 291 291 295 296 295 297 299 300 301 302 302 302 300 300 301 301 302 303 306 311 312 314 317 318 319 319 319 320 320 321 321 321 323 324 324 324 324 324 324 324 324 324 323 323 322 322 320 320 321 322 323 324 324 325 325 326 327
299 302 302 300 305 303 305 300 300 301 301 300 293 291 294 290 290 288 287 288 286 284 287 289 288 289 282 282 286 294 293 292 295 295 297 298 298 299 299 301 302 301 301 301 301 301 301 300 299 302 308 310 313 314 316 318 319 319 321 321 320 321 322 323 324 324 324 324 324 324 323 323 323 323 322 321 321 321 321 323 323 323 323 323 325 326
294 298 299 299 300 304 300 299 296 300 298 298 294 294 290 285 287 285 285 283 284 285 288 286 288 284 287 291 292 294 295 297 294 296 298 297 297 297 296 297 298 299 299 300 300 300 300 301 301 301 305 306 309 313 315 317 318 319 319 320 320 320 321 323 323 323 324 324 324 324 323 323 323 323 322 322 322 322 322 322 322 321 321 320 321 323
289 291 293 298 299 301 303 296 291 291 295 296 294 290 288 283 283 283 284 286 285 285 285 285 285 286 285 291 297 298 301 301 300 296 295 296 295 295 295 294 296 296 298 299 300 300 300 302 302 302 303 304 307 310 313 314 315 316 318 318 319 320 320 320 320 322 322 323 324 324 324 324 323 322 323 323 322 322 322 321 321 322 322 321 321 322
285 286 292 295 293 299 302 301 296 292 295 296 295 295 290 289 285 282 284 281 282 281 282 283 283 281 283 287 289 293 295 293 296 298 294 293 293 293 293 296 294 293 294 296 298 299 299 299 299 300 300 300 302 304 307 309 311 313 315 316 317 318 316 317 319 320 321 323 323 324 324 324 324 323 322 322 322 321 320 319 320 321 321 322 322 322
290 289 294 299 296 299 299 298 298 297 294 293 295 296 290 289 288 284 282 282 277 277 277 278 282 281 287 290 293 295 293 291 290 292 293 294 293 294 295 295 295 295 295 295 294 295 295 296 296 296 296 297 297 297 297 300 303 305 310 310 312 315 312 313 315 318 320 320 321 321 322 323 322 321 320 319 319 319 319 320 320 320 320 321 322 322
291 286 292 297 295 300 299 298 298 302 288 293 295 291 292 294 291 284 284 284 280 278 278 277 282 285 288 294 298 299 297 295 291 291 291 291 292 292 293 294 294 295 294 294 295 294 295 294 295 298 298 297 297 297 298 299 300 302 303 303 304 303 303 308 310 314 315 317 316 318 319 319 318 319 319 319 318 318 318 319 320 320 320 320 320 320
288 286 289 294 291 297 296 299 299 301 297 294 289 294 295 295 294 289 284 282 280 277 277 280 281 283 283 285 290 290 292 293 292 291 292 291 290 292 293 293 294 295 295 294 295 295 296 296 297 297 297 299 300 300 298 298 297 298 299 301 302 301 303 304 305 308 311 312 314 314 315 316 318 319 318 317 318 317 317 317 317 317 318 318 318 317
294 284 289 290 294 295 298 299 296 298 297 297 293 299 295 286 286 285 284 279 280 279 278 278 280 282 284 287 290 292 290 293 292 292 290 291 290 292 292 293 292 292 294 295 296 296 296 296 296 296 298 296 297 297 298 297 298 298 298 297 300 302 303 304 306 306 308 309 314 315 314 314 315 316 316 316 316 315 316 316 314 313 314 312 312 312
294 285 287 290 292 293 295 296 288 294 294 295 298 296 295 290 286 285 288 284 284 280 275 275 278 280 286 288 292 295 298 295 292 290 291 291 292 292 293 293 293 294 295 295 294 295 296 295 295 296 297 297 296 296 296 297 297 298 299 299 300 300 300 300 302 303 306 305 310 309 307 308 309 310 312 311 312 312 312 311 310 310 311 311 309 311
288 290 283 288 291 294 289 292 292 294 289 290 293 291 292 288 288 288 288 288 283 274 274 273 276 278 284 291 295 296 297 297 293 293 292 292 292 293 294 294 294 295 295 295 295 295 295 295 294 293 293 295 293 294 295 296 296 296 297 297 297 301 300 301 301 301 302 302 303 305 306 306 307 307 305 307 308 309 309 310 307 307 307 306 311 309
287 288 285 286 287 289 293 296 295 296 296 294 294 292 294 290 285 286 284 288 282 283 278 273 279 276 286 291 296 296 296 294 293 293 293 293 293 293 294 292 294 296 295 295 294 293 294 293 293 294 293 292 292 293 295 295 295 295 297 298 296 297 298 299 300 301 302 301 302 303 303 302 300 303 304 304 303 304 304 304 304 304 304 308 303 306
290 287 288 285 288 290 293 293 293 296 297 294 295 292 295 292 288 285 283 283 283 287 279 277 277 280 290 290 291 294 295 295 293 293 294 294 294 293 293 293 294 295 296 295 294 293 293 293 295 295 295 294 293 293 292 292 295 296 296 296 295 297 297 296 298 298 298 301 302 301 299 300 299 301 300 302 301 302 301 300 301 302 307 304 305 305
294 287 286 284 287 289 291 293 293 293 297 293 294 293 293 292 292 291 287 282 286 281 283 280 280 280 286 291 290 290 290 290 291 291 293 292 293 293 294 294 294 295 293 292 291 291 292 291 291 292 293 293 292 292 294 295 295 295 295 296 294 296 295 296 297 297 297 297 296 294 295 293 291 295 296 302 301 303 302 301 301 301 305 306 306 307
290 287 288 283 283 284 285 290 291 291 293 291 291 293 295 296 294 287 285 282 281 282 284 283 281 279 287 287 287 287 288 290 290 291 291 293 292 294 294 294 294 294 294 293 292 293 291 291 292 295 295 295 294 293 293 295 296 296 296 295 296 295 293 293 294 293 292 291 292 290 291 290 291 293 293 296 298 301 299 298 298 298 300 301 303 303
290 289 288 282 278 277 277 279 282 285 288 292 293 293 294 295 293 288 287 284 284 281 283 279 284 283 287 287 290 288 287 290 289 290 291 291 292 293 293 295 295 294 295 293 292 291 294 294 292 291 291 294 294 295 295 295 296 295 295 296 292 293 291 292 291 289 291 290 292 292 292 291 293 293 294 296 298 298 298 298 297 297 297 298 303 300
288 291 290 289 286 284 287 288 292 293 289 285 289 292 293 294 294 293 290 287 285 284 282 286 287 285 287 290 289 290 289 288 290 290 291 292 291 292 292 293 294 294 294 294 294 295 292 290 293 294 293 294 294 294 295 295 297 295 294 292 291 291 294 297 298 293 292 290 291 292 293 297 298 298 298 297 298 299 298 297 296 298 297 294 297 298
287 288 290 290 290 291 290 290 294 294 290 291 290 291 293 292 292 291 289 288 292 286 283 288 288 287 290 291 291 290 290 288 289 289 289 289 289 292 294 292 293 292 292 291 291 292 295 295 294 292 293 292 295 294 294 295 295 295 294 294 291 292 297 302 299 297 296 294 293 295 295 296 298 298 297 298 298 296 296 297 296 295 293 293 295 295
289 288 290 291 289 290 290 292 293 293 293 292 292 292 291 292 291 289 290 293 292 288 287 292 292 289 292 293 295 294 292 292 292 291 291 291 290 290 291 292 293 294 293 292 294 295 295 295 295 294 293 293 292 294 294 294 292 290 290 290 292 293 298 299 299 299 298 296 296 296 296 295 295 296 295 293 294 293 292 291 289 289 290 292 292 293
293 288 289 291 288 287 289 290 292 292 292 291 291 292 293 292 291 292 292 293 293 291 293 294 293 292 295 294 295 297 294 292 292 291 290 290 291 292 292 292 293 293 292 292 294 294 294 293 292 293 294 292 294 295 294 294 293 293 294 293 292 294 295 298 299 299 298 297 297 296 297 296 294 294 293 292 292 290 289 288 288 288 289 289 290 290
296 287 291 289 286 285 288 289 291 291 291 289 291 292 292 292 292 292 292 293 292 292 293 293 292 292 296 294 295 293 295 294 292 291 291 292 292 292 292 293 293 293 292 292 293 293 293 292 291 291 293 294 294 295 295 295 294 293 293 293 293 295 295 297 298 298 298 298 297 297 296 295 293 291 292 291 289 288 289 289 288 288 288 288 289 289
296 288 290 288 286 284 286 286 288 289 289 289 289 290 290 290 288 291 290 293 291 289 291 291 290 291 296 294 295 293 293 293 293 293 292 292 292 291 292 293 292 291 291 293 294 293 291 293 293 294 296 295 295 294 293 293 292 292 295 294 294 294 294 296 297 298 297 297 297 297 295 293 291 290 290 289 289 289 288 288 288 287 287 288 288 288
293 288 287 287 285 285 286 285 285 285 284 283 286 289 291 292 293 293 294 295 294 294 290 288 289 296 293 296 297 294 291 291 292 293 293 292 292 291 293 293 292 291 293 294 294 292 292 294 295 297 297 296 296 296 295 294 292 294 295 295 295 292 293 296 296 296 297 297 297 296 294 291 291 290 289 289 289 289 288 288 287 287 287 288 288 288
293 289 287 289 285 285 282 284 286 284 279 281 293 295 293 291 291 290 290 292 294 295 293 296 296 294 293 294 294 294 293 294 293 294 295 296 293 290 292 292 292 292 293 295 294 293 294 293 295 297 298 298 298 298 296 294 296 296 293 292 291 292 293 295 295 296 295 295 295 293 292 291 290 289 289 289 288 288 288 288 288 287 288 287 287 287
290 290 287 287 287 280 283 286 283 278 280 293 294 295 295 294 294 292 293 294 295 295 295 295 295 296 292 294 294 295 297 298 296 293 293 292 293 293 293 292 292 291 293 294 294 292 293 294 294 295 294 294 295 293 292 292 293 289 289 291 292 292 293 293 294 295 295 294 294 292 292 291 290 289 289 288 288 288 288 288 287 287 286 287 287 287
289 290 288 287 285 284 284 284 278 279 288 293 293 294 295 295 294 293 290 294 295 295 295 294 296 297 295 295 295 295 295 297 297 296 295 293 292 294 292 293 292 292 293 295 294 293 293 292 294 294 295 295 293 293 294 296 292 291 291 290 292 290 291 291 293 294 293 293 292 292 291 291 290 289 289 288 288 287 287 287 287 287 286 286 286 286
293 291 290 286 288 283 283 285 284 288 286 289 288 289 292 290 290 289 286 290 294 295 294 294 296 296 297 297 298 294 292 291 292 297 299 293 292 292 294 294 295 295 296 296 294 294 294 294 294 295 293 291 295 296 295 292 291 292 290 290 289 290 290 290 291 292 292 292 292 292 291 291 290 289 289 288 288 287 287 287 287 286 286 286 286 286
292 290 289 288 285 288 284 282 284 284 281 286 292 295 297 297 296 293 290 289 294 295 297 296 295 296 297 297 295 291 292 290 293 295 296 293 294 294 293 296 297 297 297 295 291 293 293 293 294 292 294 294 294 296 295 290 292 291 290 290 288 289 289 289 291 291 291 292 291 291 291 291 291 289 288 287 287 287 286 287 286 286 286 286 286 286
289 290 287 288 285 285 284 282 282 281 284 292 291 294 295 294 294 293 287 286 295 295 296 296 296 296 296 296 294 291 291 290 292 295 295 296 295 295 297 297 298 298 298 295 293 293 292 293 293 292 291 292 294 292 289 290 290 291 290 289 289 289 289 289 289 290 291 292 291 291 291 291 290 289 288 288 287 287 287 286 286 286 286 286 286 286
285 285 286 285 283 285 285 283 282 285 286 290 291 293 294 295 297 292 282 283 295 296 296 296 296 296 296 296 294 293 293 290 293 292 296 298 299 299 300 301 300 299 299 297 292 294 294 292 290 289 290 292 294 290 289 289 290 290 290 288 288 289 289 289 289 290 291 291 291 291 290 290 289 289 288 288 287 287 287 286 286 286 286 286 286 285
284 284 285 283 285 285 286 283 285 285 289 287 291 293 294 297 295 286 280 289 293 296 297 297 296 297 297 296 295 292 295 298 299 296 296 297 299 299 301 302 302 302 300 298 294 289 291 291 294 295 293 294 291 289 289 290 290 289 288 287 288 289 288 287 286 288 290 290 290 290 290 290 289 288 288 288 287 287 286 286 286 286 286 285 285 285
284 285 284 286 284 283 285 284 283 286 288 289 289 294 296 293 284 284 294 289 290 290 295 296 296 297 297 296 296 296 298 299 300 296 293 294 297 300 300 299 296 290 290 292 292 290 290 290 290 290 289 286 288 289 289 290 290 288 286 287 288 287 285 285 286 288 289 290 290 290 289 288 288 288 287 287 287 286 286 286 286 286 285 286 285 285
284 283 281 283 285 285 284 282 281 280 289 293 291 289 294 290 289 291 291 290 289 288 290 292 296 297 296 296 297 297 298 298 297 296 294 293 293 294 295 293 293 293 292 290 290 288 291 290 289 290 289 286 287 288 288 289 288 287 286 287 287 284 285 286 287 288 290 290 289 288 288 287 287 287 287 287 287 286 286 285 285 285 285 285 285 285
288 284 284 285 287 282 283 281 283 289 289 294 294 289 292 292 293 295 294 290 287 288 291 291 293 294 294 296 296 296 297 297 296 291 292 294 293 293 292 293 292 290 290 292 294 292 289 292 289 287 283 284 286 287 287 289 288 286 287 287 284 285 286 286 287 288 289 288 288 287 287 287 287 287 287 286 286 286 285 285 285 285 285 285 285 284
289 287 288 284 287 286 285 288 290 290 294 297 298 296 296 296 289 290 294 295 289 289 286 290 292 292 292 295 296 296 295 295 296 295 292 294 294 295 294 292 291 291 291 292 292 288 288 291 288 285 283 282 284 284 286 287 288 286 287 286 285 286 287 287 287 288 288 288 287 287 287 287 286 286 286 286 286 286 285 285 285 284 284 284 284 284
290 292 288 290 288 290 292 292 292 290 289 289 290 289 291 295 290 288 291 290 288 289 288 292 291 292 291 291 293 291 292 294 293 293 291 293 293 292 289 287 286 286 286 286 285 284 285 285 285 286 285 282 280 283 284 285 287 288 287 285 285 286 287 287 287 286 286 286 286 286 286 286 286 286 286 286 286 286 286 285 285 284 283 284 283 283
288 292 290 288 288 289 284 295 293 292 290 288 292 290 287 286 290 287 288 288 287 286 286 288 289 290 290 289 292 294 294 293 293 294 294 293 290 289 289 288 285 286 287 287 286 285 285 286 285 285 284 284 279 280 280 281 283 285 285 284 284 285 285 286 285 284 283 284 284 284 285 285 285 285 285 285 286 285 285 285 285 284 283 283 283 283
286 291 289 289 287 288 289 293 292 292 290 292 294 293 288 291 289 286 287 287 287 285 286 289 287 287 286 289 290 291 293 293 292 293 288 288 289 289 288 288 287 284 283 283 284 285 285 286 286 284 283 283 280 278 278 279 279 281 282 282 283 283 284 283 283 282 281 280 281 281 282 282 280 282 283 283 284 283 282 281 283 283 283 282 282 282
287 291 285 288 288 290 292 292 292 289 289 289 288 291 293 290 289 289 288 290 290 287 285 283 284 287 287 290 288 288 289 291 288 287 287 287 287 288 288 288 287 286 284 283 283 284 286 285 284 283 283 281 278 278 278 276 276 278 280 281 281 282 283 282 280 280 278 278 279 278 277 279 279 279 280 279 279 277 278 280 278 278 276 276 276 278
288 287 288 287 285 286 287 290 292 287 288 293 290 290 291 292 292 291 288 288 288 288 287 286 286 283 283 284 286 287 289 291 287 285 287 287 288 289 286 284 283 283 282 281 283 283 283 283 283 283 282 279 277 277 277 275 275 275 277 279 281 282 281 280 279 278 278 278 278 277 277 277 276 276 277 277 277 276 274 279 280 279 276 273 279 282
289 288 289 286 287 287 292 293 292 293 294 294 291 292 292 292 293 294 294 293 291 289 288 288 288 289 287 286 284 286 288 288 286 284 284 284 286 285 286 285 284 283 282 282 282 281 282 281 281 281 281 278 276 276 275 275 273 274 274 278 279 280 280 280 279 278 278 278 277 277 277 277 276 275 276 276 275 275 275 273 275 283 283 281 281 282
Wind_Speed
7 11 13 13 11 11 10 10 6 7 9 7 6 6 8 7 4 5 5 3 8 4 9 11 11 8 7 8 9 9 6 5 7 8 8 8 7 9 10 11 12 11 13 10 9 9 10 11 11 9 9 9 10 11 12 11 11 11 11 11 12 9 10 9 9 9 9 9 7 6 9 10 8 9 8 8 8 8 9 10 9 9 9 10 10 10
8 11 13 12 17 18 15 12 11 5 4 7 6 5 7 6 5 3 5 2 5 6 5 6 7 9 11 9 6 6 5 11 12 11 9 10 8 7 11 12 12 13 6 3 4 8 8 9 9 8 8 8 11 11 12 13 13 12 11 13 12 9 10 11 11 10 10 9 10 10 10 9 9 9 10 10 10 10 9 11 11 9 10 11 11 10
11 15 11 10 10 11 10 9 8 6 4 2 4 5 4 6 1 3 2 4 3 1 5 1 6 10 8 9 9 8 10 10 12 13 12 10 10 8 9 11 11 7 8 7 8 9 10 11 11 11 10 11 14 13 14 14 12 11 12 12 11 11 11 11 11 11 11 10 9 9 6 8 6 6 8 8 8 8 9 10 10 9 8 10 10 10
12 8 10 10 11 12 9 11 8 5 1 2 2 2 5 4 5 1 3 0 1 4 1 0 4 9 6 7 11 11 10 12 10 12 13 12 14 13 12 11 11 11 11 10 10 11 11 12 12 11 11 13 11 10 11 12 14 12 11 11 12 13 13 11 12 12 10 9 7 6 4 4 5 5 5 5 5 7 8 9 8 8 8 9 10 10
9 8 9 10 11 12 13 11 10 7 6 3 4 3 5 2 5 5 5 2 0 3 1 3 6 9 7 10 9 12 11 9 9 7 9 11 11 13 11 10 13 15 13 12 10 9 10 11 12 14 15 12 11 12 13 13 13 11 15 15 15 13 14 12 12 12 9 7 6 6 4 3 4 4 4 5 8 9 10 9 9 9 7 8 9 10
5 11 14 15 13 12 13 12 12 8 7 4 4 7 6 3 3 3 6 6 2 2 2 2 4 4 3 4 10 9 2 9 8 6 10 12 12 9 11 13 12 11 12 15 14 14 14 14 12 11 10 11 12 13 14 13 14 13 14 14 12 10 11 12 12 12 10 10 10 9 9 10 9 10 10 11 13 11 12 13 9 7 8 7 8 9
4 9 13 15 14 12 12 11 8 9 6 5 6 7 7 3 5 7 6 3 0 2 2 1 7 7 6 8 5 5 4 10 6 10 16 12 11 10 11 11 12 13 11 9 10 10 10 11 11 12 12 13 14 15 12 11 12 13 12 12 13 12 11 11 11 12 11 10 11 13 13 12 12 13 11 10 7 8 9 6 8 9 7 7 8 8
6 15 15 10 12 13 10 11 7 11 7 5 2 8 5 5 8 6 6 4 1 1 0 2 1 2 8 9 9 11 10 10 8 11 13 14 14 13 12 12 12 13 13 12 13 13 15 15 15 16 15 14 16 15 10 11 11 13 13 12 14 12 11 10 10 13 14 13 12 12 13 12 12 12 12 8 8 5 5 8 9 7 9 9 9 9
18 12 14 14 11 9 12 7 6 11 7 4 2 7 8 6 6 7 6 3 1 2 6 2 1 2 6 7 4 3 6 10 12 11 13 14 14 15 16 14 14 13 14 14 13 14 15 15 15 15 14 16 16 11 12 13 14 13 12 11 11 12 11 10 12 13 14 14 13 12 11 12 11 10 8 5 6 7 6 8 8 9 9 10 11 11
6 15 16 15 10 11 7 7 9 13 8 1 2 5 4 6 4 6 4 5 0 1 6 3 1 2 12 5 8 2 5 11 10 12 14 15 16 15 14 13 11 7 6 7 11 12 13 14 15 16 16 14 13 12 12 10 8 9 9 10 11 13 12 11 11 12 13 13 11 12 13 14 11 9 7 6 8 8 8 10 10 10 9 10 10 11
2 6 10 11 13 8 8 9 5 8 4 5 6 9 6 6 4 3 4 4 2 6 5 6 6 3 9 4 9 7 8 10 9 5 7 8 8 10 12 11 10 9 9 10 9 9 10 10 10 7 9 12 11 9 9 9 10 9 10 11 12 15 10 10 12 12 14 12 12 14 14 15 14 11 10 9 9 8 9 11 11 11 10 9 10 9
5 7 7 3 8 4 10 5 2 4 8 8 3 5 8 3 5 5 2 3 3 4 2 8 8 8 7 5 7 6 5 3 7 8 11 10 10 9 8 9 9 9 10 11 10 10 9 6 6 6 8 8 9 8 9 9 10 10 11 11 13 11 11 11 12 12 13 12 13 13 13 14 14 11 10 12 13 11 12 11 10 9 8 9 9 9
10 12 2 3 4 13 8 10 1 5 5 7 8 8 10 2 2 4 2 5 7 4 0 2 7 2 17 9 8 9 12 12 7 8 10 10 10 8 6 6 7 6 6 8 8 9 7 9 10 8 10 8 7 10 12 12 11 10 10 12 13 14 12 11 10 12 12 11 12 13 12 12 11 11 12 12 11 9 10 9 9 8 9 7 8 9
3 2 1 6 4 5 13 13 7 7 8 11 12 10 9 4 6 7 3 2 2 1 2 2 4 8 3 9 13 21 21 11 12 10 7 7 7 5 3 4 5 6 6 7 8 8 9 10 9 10 10 10 10 10 10 9 9 9 9 10 12 15 9 8 8 11 11 13 12 11 12 12 10 11 12 11 10 8 7 7 8 9 9 9 10 9
11 11 10 11 7 5 14 13 7 3 10 8 5 11 7 6 4 8 6 9 6 4 2 2 4 7 5 5 0 7 8 8 8 10 7 5 5 5 2 0 1 4 5 6 7 9 10 9 8 8 8 8 7 7 8 7 8 8 9 10 12 11 8 9 10 8 11 11 11 10 10 11 9 10 9 9 8 7 8 7 8 8 7 9 8 9
17 3 4 9 1 5 9 4 7 10 5 1 4 5 5 10 4 3 2 3 3 2 1 2 7 4 6 6 9 9 7 6 4 4 4 5 3 2 3 4 4 4 5 4 5 5 5 5 5 5 5 6 6 7 6 7 7 7 10 9 10 10 7 7 8 9 10 10 8 8 10 10 9 8 7 7 7 7 7 8 9 9 8 8 8 8
7 9 4 8 1 16 11 8 5 14 11 7 8 10 8 2 3 3 1 0 4 3 7 2 7 7 8 12 15 16 10 8 1 4 1 5 4 3 5 5 5 5 5 4 5 5 6 4 4 5 6 5 6 6 9 10 9 10 8 7 7 6 5 7 7 8 7 7 7 8 7 6 7 8 8 9 8 8 7 8 8 8 9 9 8 8
14 6 1 7 3 2 1 8 6 7 5 6 8 10 5 3 3 5 6 1 2 5 4 4 7 7 2 10 4 5 5 6 3 5 6 4 4 5 6 6 8 7 7 6 5 5 6 6 7 6 5 6 7 8 6 6 5 5 6 7 7 5 7 5 5 6 6 6 6 6 6 6 8 8 8 8 8 8 8 8 6 6 7 8 7 6
12 7 1 2 7 3 5 7 3 3 2 11 7 7 11 5 7 4 2 5 7 7 3 3 4 7 8 9 6 10 4 5 5 6 4 5 5 7 7 8 6 4 3 4 5 5 5 6 6 6 6 5 5 5 5 4 4 4 4 4 5 6 6 7 7 6 6 5 6 6 7 7 7 6 6 7 7 6 7 7 5 5 5 4 4 4
6 7 2 3 3 4 4 8 11 11 2 1 7 9 4 3 0 8 8 1 4 7 2 6 3 8 7 6 9 18 17 11 6 5 7 8 7 8 8 6 6 5 4 5 5 5 6 6 6 6 6 6 5 4 4 4 3 5 4 5 6 6 5 5 5 5 6 5 5 4 4 4 5 5 5 5 5 5 5 4 4 3 3 4 3 4
6 2 7 3 1 6 8 7 15 15 13 8 9 8 5 1 2 4 0 5 5 3 4 2 4 6 8 9 14 17 16 11 6 9 8 7 8 9 8 7 6 5 5 6 6 6 6 6 5 5 4 4 2 1 2 2 3 3 2 4 4 5 5 4 4 3 4 3 4 4 4 3 2 1 1 1 1 1 1 1 1 1 2 1 2 3
4 5 13 7 6 9 10 4 5 10 11 11 12 13 14 11 8 10 8 1 3 3 6 5 11 4 9 3 7 11 10 6 6 8 7 8 10 9 8 6 6 6 6 7 6 5 5 5 4 2 2 1 3 3 3 1 2 3 5 5 4 2 2 4 3 4 5 4 4 4 2 1 2 3 3 2 3 2 2 1 1 0 0 0 1 1
6 4 11 10 8 10 4 0 1 4 7 3 6 6 7 5 4 4 9 8 3 6 3 2 3 9 7 2 4 8 7 8 7 8 8 8 9 8 7 6 6 6 7 7 6 5 5 5 5 6 5 5 5 4 4 4 4 5 5 4 4 4 5 4 4 2 2 2 1 1 2 2 2 2 1 1 2 2 2 2 2 0 1 1 2 1
11 6 12 4 4 3 1 1 1 2 8 4 6 3 7 12 14 11 3 3 8 3 5 3 5 4 2 1 2 2 0 1 1 5 7 3 3 4 5 5 5 3 5 5 5 4 4 5 4 4 5 4 4 5 5 5 4 4 4 4 4 6 5 2 1 2 2 2 2 2 2 1 1 0 1 1 1 1 1 2 1 1 1 1 1 1
9 6 13 8 6 2 3 1 1 2 2 6 9 11 13 12 8 3 4 2 2 8 7 8 13 3 5 1 2 3 3 2 4 1 5 6 3 4 5 5 5 5 5 5 5 5 5 4 6 7 6 6 6 5 5 6 6 5 5 5 5 4 2 2 2 3 3 3 2 1 1 1 1 1 1 1 0 0 2 3 3 2 2 1 1 1
4 8 15 17 19 17 15 14 14 14 18 13 11 14 12 16 17 9 11 6 10 3 8 5 10 4 6 4 2 2 0 1 1 2 1 3 5 6 5 6 6 5 6 5 5 5 7 8 5 4 6 5 5 7 6 6 6 6 5 5 4 4 3 3 3 3 3 3 4 4 3 2 2 1 1 0 1 1 1 2 3 2 1 1 1 1
4 8 10 13 17 18 17 6 2 9 8 4 7 15 16 10 9 8 3 7 13 4 8 9 8 1 5 6 5 5 4 4 4 3 3 2 2 4 4 5 6 6 6 7 8 7 3 3 7 8 6 7 6 6 7 7 7 6 5 5 4 5 5 5 4 3 5 4 5 4 3 1 0 0 0 1 1 2 3 4 2 1 2 1 1 1
4 7 12 12 14 11 4 5 11 16 17 15 15 14 11 10 10 15 15 18 12 5 8 11 11 11 17 9 8 8 8 4 4 3 3 3 5 6 6 5 5 4 5 5 4 5 8 8 7 7 8 7 8 7 7 7 7 7 7 7 6 5 5 6 6 5 5 4 3 3 2 2 1 1 2 1 2 3 3 2 1 0 0 0 1 1
8 10 10 11 12 8 9 10 12 10 12 15 19 19 21 17 15 16 18 18 10 11 18 23 19 17 21 11 13 12 7 5 7 8 9 7 2 3 4 6 6 7 6 6 7 7 7 8 8 7 7 8 6 8 8 7 6 5 5 5 6 6 7 7 6 6 5 4 4 3 4 3 4 4 4 4 3 2 2 2 1 1 1 0 0 0
7 5 8 10 8 6 8 12 12 14 11 11 14 15 17 19 20 21 20 18 17 13 17 21 12 19 23 9 15 13 6 6 5 3 1 1 4 7 7 6 8 8 9 9 9 9 9 8 6 7 7 6 9 8 7 7 7 8 8 8 7 8 7 7 6 6 6 6 5 5 5 5 4 4 3 3 3 3 3 2 2 2 2 1 1 1
13 6 14 8 7 6 9 11 14 16 15 14 15 16 16 16 17 18 17 16 13 15 17 21 21 22 14 6 8 5 10 9 5 5 5 8 8 9 8 8 9 9 9 8 7 10 8 5 5 5 6 8 8 9 8 7 6 6 7 7 8 9 8 8 8 7 7 6 5 5 5 5 4 4 4 3 3 3 3 3 3 2 2 2 1 1
11 4 9 8 10 7 8 11 12 14 14 15 15 16 16 17 17 17 19 20 17 19 22 21 19 18 15 10 6 6 7 8 10 12 12 10 10 9 8 11 11 9 9 10 12 9 5 6 6 8 9 9 9 8 7 7 6 6 10 9 9 9 8 8 8 8 7 6 6 6 6 5 5 4 4 3 3 3 3 3 3 3 2 2 1 1
11 8 11 12 13 12 9 9 10 7 5 7 17 20 23 23 23 21 20 17 17 18 18 18 22 23 2 10 13 9 7 9 12 12 10 10 10 10 12 13 11 10 11 12 12 9 8 9 10 11 10 7 8 9 11 9 7 10 10 10 9 8 9 9 8 7 7 6 7 6 6 5 5 4 4 4 4 4 4 4 3 3 3 2 2 2
9 9 8 9 12 8 8 9 9 10 16 18 16 25 25 23 19 15 17 21 19 17 16 18 20 6 9 10 12 9 11 11 12 12 12 14 11 8 11 10 10 11 10 10 10 9 10 9 8 9 11 12 12 13 10 11 13 11 7 6 6 9 8 9 7 7 7 7 6 6 6 6 5 5 5 5 5 5 4 4 4 3 3 3 3 2
12 11 8 5 9 6 10 13 10 16 16 12 4 8 13 14 15 23 24 23 22 21 20 21 20 15 5 7 9 11 12 11 10 12 12 10 8 12 14 13 11 10 11 12 11 9 9 10 10 9 7 7 8 6 6 7 8 4 5 7 8 7 9 8 8 8 7 7 6 6 7 7 6 6 6 5 5 5 4 4 3 3 2 2 2 2
11 13 6 5 4 5 9 12 11 13 3 0 8 14 12 12 20 18 20 23 26 25 22 22 22 16 9 13 9 7 8 9 9 12 15 11 10 12 11 11 11 10 12 14 14 12 11 10 12 12 12 8 5 6 8 10 8 7 7 6 8 8 8 9 8 8 7 8 7 8 7 7 7 6 6 6 5 4 4 3 3 3 3 2 2 2
6 7 9 8 6 11 8 12 13 3 2 2 6 8 15 20 21 22 19 24 20 11 11 18 22 21 21 23 20 6 1 4 7 15 12 7 7 7 11 12 12 16 17 17 11 13 13 11 9 10 6 6 9 9 10 7 8 7 7 7 7 8 7 8 8 8 8 8 8 8 8 7 8 7 7 5 5 4 4 4 3 3 3 4 3 3
3 11 6 11 6 7 11 9 8 7 13 12 17 15 22 17 9 6 7 16 5 15 19 22 26 27 23 19 9 3 1 5 15 22 7 10 10 9 9 11 16 17 16 12 6 9 9 9 9 7 9 10 10 12 9 8 9 9 9 8 7 8 7 8 9 8 9 9 8 8 8 7 7 8 6 6 5 5 4 3 3 3 3 4 4 3
6 5 2 9 4 7 8 12 10 12 15 15 10 8 6 5 16 13 4 16 19 18 21 23 27 26 19 15 11 7 6 13 23 14 10 14 10 10 15 19 19 16 15 12 13 12 11 12 13 11 8 8 10 9 6 8 10 10 9 8 8 8 9 9 9 10 10 9 8 7 7 7 7 6 6 6 5 5 6 5 5 3 3 3 4 3
4 2 4 4 4 8 10 10 11 6 10 8 8 10 12 13 17 12 8 14 27 12 17 21 26 25 17 16 11 13 17 20 23 4 14 17 21 21 22 22 20 18 18 15 9 11 12 8 5 5 8 11 14 8 10 9 10 9 10 9 8 9 11 10 9 7 6 6 7 6 7 7 7 6 7 6 5 4 5 4 4 4 5 4 4 4
4 2 4 9 6 8 13 4 1 6 5 3 9 13 16 16 15 13 16 22 2 18 22 20 22 20 15 16 13 15 19 19 17 10 15 16 18 20 22 22 24 20 19 16 11 8 6 8 12 14 15 14 10 10 10 10 10 10 8 8 9 11 8 6 6 7 7 7 7 7 7 7 6 7 6 6 6 5 5 4 5 5 5 5 4 3
3 3 2 3 4 6 5 9 7 4 6 6 2 18 17 13 11 20 16 5 8 4 11 14 18 17 15 17 15 17 19 20 23 11 12 11 18 19 18 16 11 6 6 7 8 7 7 7 8 6 4 5 10 10 10 11 11 8 8 8 10 8 5 7 7 7 8 8 8 7 6 6 6 6 6 5 6 6 5 3 4 5 5 4 4 4
7 7 6 8 4 3 3 3 2 8 7 15 11 8 11 15 12 5 5 1 2 3 5 8 14 16 15 17 18 20 20 18 18 13 13 12 10 13 13 11 12 12 10 7 4 6 9 8 9 10 9 6 8 9 9 11 10 9 8 10 8 6 8 8 8 8 8 8 7 7 7 7 7 7 6 6 7 8 6 4 4 4 5 6 5 5
4 4 2 2 4 6 7 9 8 8 2 15 20 14 15 5 7 7 2 4 6 6 8 7 10 10 10 13 14 14 16 18 15 5 9 13 12 11 11 11 10 7 6 9 12 11 10 11 8 6 4 4 5 7 8 11 11 9 10 10 7 8 9 9 9 9 9 9 8 8 8 8 7 7 6 7 7 7 7 5 5 4 5 5 6 5
6 6 3 5 4 7 7 9 3 5 17 19 15 3 5 8 3 0 6 7 3 5 2 5 8 9 8 11 13 16 15 15 15 12 11 15 17 18 17 15 12 11 11 12 13 7 8 11 10 7 5 4 6 6 8 7 12 11 12 8 9 10 11 11 10 10 10 10 9 9 7 7 6 7 6 7 8 8 7 6 6 5 4 5 5 5
2 4 1 1 2 4 10 9 2 5 5 4 9 0 4 1 2 3 1 4 5 6 8 7 7 7 9 8 9 7 8 10 10 11 10 14 15 14 8 5 4 3 3 2 2 4 5 5 7 9 8 5 4 6 5 6 9 14 10 9 9 9 10 11 12 11 10 9 8 8 8 9 7 7 7 7 6 6 6 6 5 4 4 4 4 4
3 6 3 3 1 5 8 12 15 12 6 4 8 6 2 1 3 0 2 1 5 4 5 6 8 8 8 7 11 14 13 13 13 15 15 11 9 9 9 8 6 7 9 10 7 9 8 9 9 9 9 8 2 3 3 4 2 4 8 9 8 9 10 10 11 10 9 10 9 8 8 9 7 7 6 5 5 5 5 4 4 4 4 3 4 4
4 3 5 6 5 9 14 14 6 7 4 8 9 8 4 1 3 2 4 4 5 5 6 9 5 5 4 5 11 11 15 12 10 11 5 6 8 8 9 8 8 6 5 4 7 7 7 9 10 9 8 8 4 4 4 4 4 6 8 7 8 9 10 10 10 10 10 9 8 8 8 7 8 8 7 6 6 6 5 4 4 4 3 4 3 4
4 7 4 5 8 9 15 14 8 6 6 7 6 7 9 6 4 5 6 9 8 7 6 5 3 2 2 7 2 4 8 11 5 5 6 6 7 8 10 12 9 7 6 8 7 8 11 10 10 10 10 8 5 6 6 5 5 6 8 8 9 10 11 11 9 9 9 8 8 7 6 7 7 7 7 6 6 5 4 7 5 3 2 1 2 5
6 8 4 4 6 10 12 18 10 8 10 14 7 8 10 11 9 8 6 7 7 7 8 7 8 4 3 5 5 5 8 10 7 6 8 9 9 10 7 4 4 6 5 5 7 7 7 8 11 13 11 9 7 7 8 7 5 5 5 7 8 10 12 11 10 10 9 8 8 7 7 7 7 6 7 7 7 6 2 2 4 5 5 2 3 5
9 8 8 8 9 14 19 11 8 9 14 12 6 9 10 8 9 13 15 14 11 8 8 7 9 11 9 9 5 6 7 6 5 2 3 4 6 6 7 8 8 7 8 8 9 7 8 8 8 10 10 9 7 7 7 7 5 5 5 6 7 9 11 11 10 9 8 8 8 8 8 8 7 7 7 6 7 6 6 4 1 1 3 4 4 4
Wind_Direction
154 166 186 187 177 171 172 178 181 185 174 155 160 168 199 200 238 224 219 230 177 141 215 217 233 246 255 237 240 240 239 239 247 242 232 232 209 203 206 203 203 203 213 212 195 189 191 192 191 185 180 184 188 190 191 191 194 187 180 183 194 189 178 176 182 189 190 192 195 201 201 204 198 200 202 208 208 208 209 209 206 199 198 196 198 201
168 183 202 183 177 173 176 180 199 195 135 149 168 175 216 203 222 245 203 172 176 159 255 235 251 254 250 258 247 245 231 229 223 229 229 229 225 204 203 207 205 210 224 159 177 203 194 191 193 181 180 177 184 198 190 193 195 195 183 185 190 184 187 187 186 188 196 200 201 196 199 195 195 193 198 207 207 207 207 208 209 203 199 198 198 198
194 200 180 177 166 162 167 187 204 215 190 132 145 184 209 225 151 346 39 146 199 130 273 249 231 253 254 258 259 239 229 231 222 221 222 213 224 218 203 205 207 211 216 199 202 194 197 193 188 187 189 192 193 189 193 196 190 190 193 191 186 189 189 194 189 186 198 200 204 203 206 199 201 217 211 213 211 208 210 212 211 209 201 200 201 198
193 205 164 165 157 160 169 185 201 215 195 148 134 152 206 207 144 256 296 332 247 159 214 77 298 274 261 252 252 248 236 237 225 221 226 210 213 214 205 195 199 206 209 207 201 200 200 193 191 190 193 198 193 189 197 196 194 192 194 192 191 193 194 193 196 196 197 195 195 204 196 211 206 199 218 226 222 219 222 222 211 216 206 200 203 199
180 142 145 149 164 165 171 183 195 194 217 195 178 172 205 202 212 147 207 165 337 307 13 346 308 289 240 243 250 243 235 246 242 227 234 233 222 214 211 205 195 199 200 203 205 203 196 197 196 194 199 190 191 196 196 195 195 196 196 197 194 193 195 196 195 196 188 173 176 181 181 185 222 256 227 206 222 214 215 218 215 213 198 203 204 201
127 160 154 165 167 176 171 186 200 164 196 232 223 184 193 171 99 98 118 119 27 333 295 144 331 295 288 261 248 267 289 245 238 227 232 224 224 224 220 213 213 213 197 196 198 197 195 196 200 203 197 192 200 202 204 198 198 196 201 200 197 194 194 198 196 190 184 190 190 183 191 201 206 217 214 214 211 205 206 211 210 207 202 203 208 206
157 158 161 167 173 173 183 193 187 163 172 162 248 178 194 144 122 125 143 95 137 188 284 66 195 271 328 305 258 268 238 245 247 221 236 229 223 222 223 220 215 211 214 215 202 194 189 199 197 202 198 200 202 211 203 200 202 203 203 201 199 199 198 194 193 185 185 192 197 200 205 209 208 214 223 223 221 211 215 206 207 213 213 213 211 214
163 164 168 167 166 176 184 193 192 158 133 215 232 169 177 148 129 161 144 145 169 245 313 31 134 255 292 266 257 256 254 253 246 241 237 233 229 223 218 217 217 213 206 199 201 198 195 193 193 198 202 200 207 208 195 203 205 205 204 199 201 203 201 196 187 188 190 195 197 201 207 210 216 216 224 213 221 215 197 205 212 207 218 219 220 219
161 165 165 171 175 178 194 186 141 159 165 212 216 179 181 179 159 148 128 122 175 99 275 311 357 327 252 271 286 242 280 268 250 238 238 234 229 228 225 218 213 209 203 197 198 201 198 197 198 200 200 206 208 199 196 203 204 204 204 203 202 206 203 200 191 191 196 199 198 201 204 213 220 220 223 206 210 208 199 210 210 209 215 218 222 222
169 176 168 164 169 192 178 183 179 170 167 247 104 85 87 78 75 120 105 102 57 122 248 219 168 223 273 228 261 254 223 250 245 231 231 228 225 224 228 228 221 215 215 217 211 204 203 203 204 202 201 201 204 200 202 205 202 205 203 205 203 211 205 200 196 196 199 201 198 203 208 214 216 210 213 194 205 205 194 213 212 211 213 214 219 222
149 153 159 165 192 181 166 194 159 169 157 129 91 80 62 52 68 52 74 107 69 247 239 198 202 142 290 238 209 179 219 219 242 258 255 248 240 237 232 225 216 208 207 207 211 215 213 212 211 214 209 208 205 199 193 196 197 197 198 205 207 214 206 199 201 198 203 199 201 210 210 212 215 207 205 208 215 205 202 212 213 210 213 211 217 215
122 159 179 254 147 119 153 170 34 158 146 125 95 129 87 14 24 36 5 40 200 254 226 175 186 171 217 289 276 252 285 250 210 231 244 242 237 233 225 224 220 211 207 209 208 215 214 216 217 191 214 218 211 196 195 199 196 195 200 199 209 214 207 204 203 201 206 200 207 213 212 215 217 207 209 213 218 210 211 214 215 212 211 218 218 217
149 181 190 98 315 154 158 149 274 140 171 125 124 117 142 187 77 235 67 226 219 201 300 192 156 350 242 245 285 286 263 259 237 224 236 237 244 247 247 235 228 220 216 210 213 213 211 209 208 202 208 206 202 198 201 201 197 198 198 199 205 216 208 206 201 205 207 204 211 211 214 220 216 215 218 220 224 216 217 216 218 207 214 211 216 219
184 13 181 173 190 203 159 177 158 157 200 153 162 152 147 142 186 215 169 332 290 275 265 147 173 245 289 282 231 245 261 257 246 239 241 237 227 227 233 237 201 203 189 191 194 197 199 203 206 202 199 198 198 201 201 199 195 197 200 201 205 220 204 203 198 206 206 212 213 209 212 216 211 218 219 223 225 222 219 211 216 213 213 209 213 210
148 177 220 167 199 190 180 188 172 120 155 174 113 158 178 155 167 202 174 199 214 191 229 272 130 233 138 248 231 235 246 269 261 231 222 230 209 188 187 209 160 155 182 173 178 187 192 198 193 191 192 192 194 193 195 196 201 194 201 199 208 217 200 195 203 200 208 213 213 211 212 213 211 217 218 224 222 216 214 211 214 217 213 216 217 215
183 158 174 173 136 153 159 158 124 118 94 309 152 68 153 212 109 171 200 145 170 140 225 215 212 186 198 266 285 256 255 269 282 257 237 229 186 144 137 171 189 203 197 202 193 208 223 215 211 208 200 205 203 201 196 201 198 196 206 200 206 208 195 196 201 207 208 213 207 209 209 209 207 210 210 217 213 215 208 212 213 217 214 216 219 221
157 207 192 155 195 170 175 151 165 152 177 194 136 199 197 164 105 99 23 329 101 55 245 175 296 287 297 294 278 283 280 265 308 279 266 254 238 199 201 217 231 230 230 218 212 218 229 240 230 210 206 211 214 210 207 205 198 200 196 194 205 205 198 206 208 210 211 210 205 214 208 202 202 203 209 213 214 211 209 211 215 216 217 216 214 222
162 137 326 150 133 209 117 157 167 171 133 104 180 199 105 46 108 143 215 63 207 195 259 163 220 285 8 281 302 334 285 272 261 243 238 235 250 240 240 231 223 222 222 223 226 224 216 210 209 209 210 201 201 208 213 215 207 200 192 192 197 196 206 218 212 218 215 214 214 211 206 207 204 204 211 211 216 213 214 220 219 222 228 226 223 213
120 86 270 285 153 141 104 89 105 286 339 171 188 154 146 203 201 225 117 226 191 225 254 264 210 249 194 245 310 289 244 262 232 238 240 244 233 229 240 251 263 272 271 245 223 212 208 205 206 203 204 212 207 201 194 181 163 156 166 176 176 199 206 206 210 212 217 207 209 201 203 203 209 211 213 215 215 211 217 225 226 229 240 263 237 208
131 112 114 334 142 181 119 150 186 187 7 59 124 176 190 91 303 146 199 125 125 239 118 298 128 245 209 217 219 253 263 247 214 218 227 218 216 219 231 238 240 241 221 211 207 203 203 204 203 200 202 207 201 187 191 180 173 181 186 182 196 202 204 210 213 205 206 206 195 200 192 206 204 209 214 219 211 220 223 231 234 245 261 244 240 223
145 109 143 165 307 158 183 199 198 182 163 165 169 181 194 179 249 117 225 175 172 173 191 220 258 270 248 214 211 232 242 250 196 203 214 214 220 221 218 216 216 207 205 216 208 210 213 215 222 226 219 207 192 173 144 156 179 193 185 204 205 194 204 205 214 196 211 189 193 177 185 178 142 119 67 68 30 237 269 274 189 186 208 165 205 201
97 152 147 140 150 201 200 197 212 181 184 188 181 186 180 161 133 167 235 110 138 183 230 154 248 273 266 198 201 246 246 244 220 185 200 214 219 216 222 223 201 192 216 207 213 209 209 214 220 203 180 161 150 166 178 196 170 198 204 208 207 207 209 190 204 181 198 195 171 165 142 95 56 58 50 47 33 38 11 350 359 225 74 139 258 164
137 104 123 159 181 183 166 286 298 189 174 141 162 202 177 172 149 169 204 217 168 229 106 152 308 262 247 245 253 231 228 220 213 177 195 210 219 219 220 214 209 197 186 203 206 208 206 197 190 184 178 180 180 181 192 202 198 203 206 203 210 194 222 208 206 181 129 119 104 80 66 59 36 43 55 42 15 357 339 316 297 269 256 225 239 220
87 102 112 70 49 34 19 282 26 85 133 170 212 166 157 196 196 200 186 170 177 201 197 233 257 249 283 240 249 309 17 301 159 162 150 176 178 193 182 173 173 198 227 219 211 215 212 201 187 167 183 187 191 193 202 205 206 207 205 202 197 201 211 209 155 114 95 82 66 59 67 57 30 42 5 279 296 336 331 328 328 353 7 314 327 288
142 227 129 137 123 92 356 22 221 323 212 201 196 198 194 197 191 181 109 74 161 216 174 157 235 266 268 323 317 30 31 77 96 140 144 138 185 175 177 192 203 207 211 217 209 207 211 199 187 196 193 197 198 201 202 203 206 202 204 198 199 199 184 148 106 92 90 107 104 68 91 74 73 81 352 280 333 14 20 13 2 17 22 9 320 312
76 157 155 166 165 168 174 188 188 187 198 194 200 192 201 188 186 160 206 184 216 240 155 184 237 251 279 325 324 329 22 121 269 208 220 163 177 192 210 215 215 208 212 212 220 213 208 207 200 197 205 201 199 196 197 203 204 204 201 201 181 167 161 157 115 118 123 136 147 162 156 156 112 92 103 114 68 45 29 11 24 11 37 63 308 300
131 155 192 176 183 191 187 173 73 75 53 143 169 189 199 199 181 192 205 218 222 176 190 231 231 271 281 273 274 265 268 234 215 237 185 189 239 241 229 218 214 210 208 210 209 212 212 215 214 212 209 206 201 200 199 197 201 199 190 190 186 171 163 155 144 158 159 166 165 170 169 139 107 71 55 52 13 351 311 292 289 351 356 44 81 170
108 166 192 175 198 193 144 131 136 158 179 186 182 191 189 179 173 189 197 218 203 159 254 238 226 222 232 219 247 247 251 243 257 262 262 256 241 213 218 232 242 253 254 252 246 212 207 214 211 207 209 207 208 205 209 206 200 190 184 190 186 176 166 165 175 183 182 168 169 172 173 164 176 221 266 252 229 216 214 227 255 302 139 142 167 198
145 176 187 178 196 176 150 148 151 165 182 184 188 184 190 186 186 196 213 223 192 198 222 233 220 230 245 195 225 237 224 215 207 213 212 201 194 223 234 235 229 229 240 236 231 218 213 212 206 201 203 208 200 205 208 202 200 187 186 182 182 179 182 174 180 183 179 173 184 185 179 177 198 190 181 171 155 138 138 133 125 99 80 76 45 48
130 191 169 176 176 167 171 162 160 170 182 186 196 197 195 191 198 203 215 217 211 219 232 250 241 236 243 195 212 224 246 237 240 242 51 110 226 224 212 218 223 225 226 226 227 224 220 214 191 198 197 198 205 207 205 201 195 191 185 190 187 186 185 166 188 180 183 187 184 179 175 188 175 158 154 156 160 158 143 129 120 110 102 100 122 143
168 195 152 166 158 189 198 173 170 174 177 194 198 199 197 196 204 212 219 226 221 235 242 246 247 252 250 157 211 195 215 243 278 284 234 221 221 220 211 218 225 224 225 230 235 231 220 197 200 193 194 205 207 209 205 209 203 193 191 191 189 188 181 172 181 190 187 187 174 172 172 165 166 155 170 170 145 143 137 139 130 114 109 100 89 103
184 199 147 149 174 214 209 180 181 175 180 190 197 199 195 191 203 208 215 214 203 214 227 239 251 252 247 146 204 199 216 215 221 224 220 221 219 211 208 221 224 224 223 225 228 224 190 197 193 194 200 207 209 206 206 204 201 194 207 192 192 184 172 176 181 185 187 178 172 170 167 166 163 165 166 150 156 152 151 134 124 114 111 111 93 67
185 152 165 164 186 205 195 163 151 137 142 208 210 198 196 201 203 206 219 218 211 206 216 223 232 236 167 143 217 210 187 210 223 221 222 225 218 202 210 220 221 218 219 220 224 213 198 195 196 195 203 199 201 205 211 189 176 209 207 196 190 156 171 178 178 178 180 177 175 174 164 159 164 167 159 166 158 153 144 136 127 130 134 144 145 102
161 146 162 166 197 177 130 132 131 143 200 214 203 201 192 198 197 205 216 220 219 207 221 224 236 220 139 203 209 208 205 216 215 225 208 208 210 215 228 228 220 219 224 228 228 211 206 200 202 206 196 195 202 203 195 181 192 206 195 179 156 166 171 166 175 176 179 174 175 163 161 159 162 164 166 159 156 152 149 145 156 159 156 136 128 130
172 162 178 174 188 161 137 126 161 206 218 220 189 159 193 192 192 209 219 220 220 217 227 237 241 238 178 216 194 206 212 221 220 225 230 228 203 199 209 218 220 218 225 231 229 218 218 202 200 207 216 228 218 205 174 199 207 161 152 168 168 171 163 172 170 178 174 173 170 161 163 160 165 164 161 161 159 155 158 157 152 150 151 133 134 135
175 171 147 176 130 92 158 166 192 223 214 283 137 158 159 173 208 208 234 231 222 215 214 231 241 244 225 243 226 212 209 228 239 234 228 214 194 202 205 215 221 216 224 226 216 207 212 208 201 198 210 206 171 200 193 199 180 168 180 170 169 168 170 168 171 171 165 170 174 170 167 163 167 164 161 161 161 158 156 153 150 154 146 117 103 99
161 171 176 186 179 172 174 180 203 44 19 152 139 168 161 196 197 193 214 235 227 215 204 231 241 236 232 233 231 209 330 351 282 259 231 186 205 219 204 209 212 223 221 228 203 204 211 210 205 210 191 170 190 185 203 184 166 163 153 168 171 165 167 164 171 173 173 174 173 171 167 166 163 164 163 164 159 161 158 154 151 154 147 126 135 133
39 184 194 173 215 166 169 180 196 219 231 209 207 193 193 199 187 170 212 273 200 198 210 220 231 234 231 238 240 182 85 291 265 254 194 151 200 207 228 227 227 226 226 225 194 206 207 212 215 209 185 188 192 200 183 162 163 158 165 170 164 164 167 173 182 176 174 177 173 168 167 167 163 161 162 159 167 165 159 150 149 161 159 145 146 137
25 66 54 185 160 149 175 187 192 204 226 226 210 181 182 124 108 99 150 254 246 190 205 210 231 236 226 224 212 147 171 230 245 248 129 167 192 202 213 227 229 228 230 210 193 198 205 208 202 197 189 185 197 205 168 166 158 160 173 172 170 168 173 188 181 177 176 173 167 165 163 162 159 159 157 167 170 163 161 166 168 158 146 134 135 151
97 65 120 122 172 187 171 186 204 202 230 229 143 176 148 131 109 107 211 248 252 172 203 206 224 230 223 220 196 185 206 228 240 215 171 178 190 204 212 221 225 227 232 224 200 198 197 193 146 155 188 193 208 171 168 162 164 173 173 174 164 174 192 192 180 167 154 151 157 156 159 161 160 159 161 169 165 162 155 151 142 148 141 141 141 147
155 131 202 183 155 176 186 206 15 283 273 196 179 145 146 129 131 177 209 235 145 154 201 201 219 226 215 217 195 213 224 229 239 194 204 190 194 209 217 220 223 222 225 228 214 194 182 188 189 193 196 202 176 165 168 161 161 176 174 163 170 199 194 163 151 152 154 152 153 156 159 158 157 159 166 161 158 150 138 148 149 143 143 141 141 134
82 94 89 108 164 172 178 192 226 269 242 154 180 148 147 137 187 204 217 103 127 190 205 191 210 221 211 214 207 218 228 223 234 205 215 205 201 212 220 227 238 254 243 224 212 180 196 194 212 209 191 167 165 167 163 161 166 167 162 166 194 193 147 152 154 149 149 152 150 151 151 152 154 151 149 147 143 137 134 146 148 150 143 140 135 131
182 149 186 177 149 75 90 172 94 246 240 153 141 157 175 182 213 185 89 49 114 189 158 203 205 219 203 217 214 218 228 235 234 211 215 231 221 228 233 234 227 222 218 217 238 213 187 197 202 203 192 171 166 164 165 158 161 163 166 184 191 158 154 151 149 146 145 142 145 148 149 147 145 145 147 151 147 135 134 144 145 150 145 143 139 138
198 139 177 196 192 153 170 189 207 229 41 136 144 185 206 194 138 140 185 215 225 165 178 199 221 222 207 212 219 228 231 240 246 211 219 238 240 241 240 240 240 231 216 218 216 209 188 199 195 180 162 165 161 164 164 164 160 165 171 190 168 154 147 147 148 146 144 148 150 150 149 148 145 145 149 149 138 131 136 151 158 157 159 151 145 144
193 191 187 185 210 193 195 210 233 161 151 176 180 208 206 212 49 76 185 196 182 263 214 178 222 226 213 207 220 221 227 231 236 222 206 227 229 232 234 229 219 213 203 207 219 197 182 189 177 154 141 158 168 170 170 170 159 165 178 181 155 155 151 149 149 147 149 151 151 147 146 138 142 148 151 149 141 138 145 154 159 151 166 146 145 146
270 185 107 95 255 269 276 250 204 271 274 280 336 36 22 326 283 48 231 223 245 210 177 187 213 219 222 213 216 255 233 239 232 239 225 234 231 236 241 239 232 216 195 166 126 138 154 121 133 150 157 167 175 167 173 175 165 169 181 154 159 149 146 146 146 146 148 147 147 147 143 142 143 147 147 144 140 139 146 152 162 154 162 158 152 149
221 185 212 201 269 158 247 245 240 240 247 286 278 318 347 339 256 202 30 218 272 272 246 241 208 212 215 193 202 220 230 225 226 229 230 234 234 234 225 216 204 191 179 189 186 143 139 151 155 166 163 159 173 157 166 161 176 148 138 154 147 144 141 143 140 139 142 147 147 146 148 148 151 146 140 134 128 127 133 141 150 151 160 164 155 154
259 192 174 201 172 187 244 238 239 258 227 217 233 262 303 312 319 224 207 230 223 219 208 230 198 228 166 194 217 220 234 234 221 239 225 213 221 229 230 226 209 198 214 179 161 167 151 160 160 155 154 155 152 125 118 116 125 138 141 140 144 139 136 135 143 144 147 147 146 147 150 149 144 140 135 134 131 131 129 142 154 160 175 171 171 151
190 139 220 175 207 236 255 265 255 271 294 268 238 233 233 211 234 261 233 234 244 250 271 300 264 271 191 244 302 278 272 267 246 215 193 211 219 227 223 221 210 194 164 155 167 163 167 160 156 160 150 147 144 132 127 127 131 144 149 147 144 142 137 138 135 136 138 143 139 145 148 145 143 139 137 137 139 146 157 157 165 173 212 261 171 168
102 191 189 162 217 236 232 242 205 236 255 253 224 215 225 232 241 250 284 294 275 269 269 285 288 266 243 240 243 218 224 248 230 184 204 204 209 220 223 199 153 150 159 161 154 159 150 160 155 154 150 147 146 140 135 133 136 145 152 147 146 142 138 139 136 137 143 146 144 143 140 135 136 137 137 139 137 123 76 62 161 166 160 228 227 202
194 198 177 200 197 235 240 243 103 209 249 244 199 208 206 212 218 235 245 249 254 244 242 237 258 278 267 255 208 199 226 234 249 183 228 227 233 221 193 175 170 174 170 161 146 151 150 150 146 138 140 143 140 134 131 128 136 135 143 145 143 141 141 141 137 136 141 145 148 149 142 139 135 139 133 131 129 125 128 103 40 140 156 160 134 122